WAT3252 KLAX-KMSP

Flight info

Callsign WAT3252
Flight time N/A
Altitude 37000
Route ORCKA5 LAS BAWER LARVE EKR BFF SSWAN TORGY4
Aircraft A319/M-SDE3FGHIRWY/LB1

Departure

Time 2026-04-20 17:52
Airport Los Angeles International Airport (KLAX)

Arrival

Time N/A
Airport Minneapolis–Saint Paul International Airport / Wold–Chamberlain Field (KMSP)
Time Latitude Longitude Altitude Speed Heading
2026-04-20 17:08 33.94073 -118.40248 93 ft 0 kts 83°
2026-04-20 17:35 33.94071 -118.40273 93 ft 4 kts 83°
2026-04-20 17:35 33.94068 -118.40299 93 ft 4 kts 93°
2026-04-20 17:35 33.94077 -118.40320 93 ft 4 kts 166°
2026-04-20 17:35 33.94073 -118.40320 93 ft 4 kts 173°
2026-04-20 17:36 33.94046 -118.40316 94 ft 4 kts 173°
2026-04-20 17:36 33.94028 -118.40313 93 ft 0 kts 173°
2026-04-20 17:45 33.93990 -118.40306 94 ft 12 kts 170°
2026-04-20 17:45 33.93903 -118.40292 94 ft 13 kts 173°
2026-04-20 17:46 33.93851 -118.40249 96 ft 9 kts 91°
2026-04-20 17:46 33.93861 -118.40168 96 ft 11 kts 82°
2026-04-20 17:46 33.93870 -118.40079 98 ft 12 kts 82°
2026-04-20 17:46 33.93882 -118.39972 96 ft 14 kts 83°
2026-04-20 17:47 33.93894 -118.39849 96 ft 16 kts 83°
2026-04-20 17:47 33.93908 -118.39708 95 ft 18 kts 83°
2026-04-20 17:47 33.93923 -118.39553 95 ft 19 kts 82°
2026-04-20 17:47 33.93941 -118.39383 93 ft 22 kts 83°
2026-04-20 17:48 33.93960 -118.39202 93 ft 22 kts 83°
2026-04-20 17:48 33.93979 -118.39016 94 ft 23 kts 83°
2026-04-20 17:48 33.93999 -118.38821 94 ft 24 kts 83°
2026-04-20 17:48 33.94020 -118.38614 95 ft 25 kts 83°
2026-04-20 17:49 33.94042 -118.38399 98 ft 25 kts 83°
2026-04-20 17:49 33.94065 -118.38181 94 ft 27 kts 83°
2026-04-20 17:49 33.94080 -118.38043 93 ft 14 kts 82°
2026-04-20 17:49 33.94071 -118.38010 93 ft 0 kts 161°
2026-04-20 17:50 33.94052 -118.38004 95 ft 9 kts 165°
2026-04-20 17:51 33.93981 -118.38035 94 ft 13 kts 255°
2026-04-20 17:51 33.93962 -118.38239 97 ft 47 kts 263°
2026-04-20 17:51 33.93897 -118.38875 95 ft 106 kts 263°
2026-04-20 17:51 33.93785 -118.39963 99 ft 156 kts 263°
2026-04-20 17:52 33.93644 -118.41378 468 ft 173 kts 263°
2026-04-20 17:52 33.93477 -118.42827 1094 ft 178 kts 261°
2026-04-20 17:52 33.93329 -118.44153 1650 ft 184 kts 265°
2026-04-20 17:52 33.93299 -118.45723 2178 ft 194 kts 265°
2026-04-20 17:53 33.92889 -118.47372 2475 ft 218 kts 247°
2026-04-20 17:53 33.92241 -118.49135 2890 ft 242 kts 245°
2026-04-20 17:53 33.91506 -118.51059 3456 ft 260 kts 245°
2026-04-20 17:53 33.90750 -118.53066 4317 ft 266 kts 246°
2026-04-20 17:54 33.89994 -118.55117 5222 ft 270 kts 246°
2026-04-20 17:54 33.89241 -118.57214 6101 ft 274 kts 247°
2026-04-20 17:54 33.88489 -118.59337 6965 ft 278 kts 247°
2026-04-20 17:54 33.87729 -118.61498 7807 ft 282 kts 247°
2026-04-20 17:55 33.86962 -118.63692 8611 ft 286 kts 247°
2026-04-20 17:55 33.86188 -118.65915 9380 ft 290 kts 247°
2026-04-20 17:55 33.85401 -118.68175 10129 ft 294 kts 246°
2026-04-20 17:55 33.84590 -118.70495 10510 ft 313 kts 246°
2026-04-20 17:56 33.83660 -118.72965 10700 ft 334 kts 238°
2026-04-20 17:56 33.82107 -118.75079 11187 ft 343 kts 216°
2026-04-20 17:56 33.79972 -118.76354 11853 ft 346 kts 194°
2026-04-20 17:56 33.77574 -118.76537 12549 ft 349 kts 172°
2026-04-20 17:57 33.75287 -118.75561 13225 ft 354 kts 149°
2026-04-20 17:57 33.73487 -118.73538 13839 ft 360 kts 125°
2026-04-20 17:57 33.72504 -118.70760 14444 ft 368 kts 101°
2026-04-20 17:57 33.72552 -118.67687 15029 ft 374 kts 77°
2026-04-20 17:58 33.73674 -118.64863 15608 ft 380 kts 51°
2026-04-20 17:58 33.75624 -118.62716 16176 ft 383 kts 38°
2026-04-20 17:58 33.77695 -118.60666 16758 ft 387 kts 40°
2026-04-20 17:58 33.79707 -118.58502 17312 ft 390 kts 43°
2026-04-20 17:59 33.81700 -118.56265 17868 ft 393 kts 43°
2026-04-20 17:59 33.83351 -118.54397 18314 ft 396 kts 43°
2026-04-20 17:59 33.85376 -118.52125 18839 ft 400 kts 43°
2026-04-20 17:59 33.87425 -118.49855 19049 ft 401 kts 42°
2026-04-20 18:00 33.89499 -118.47587 19405 ft 404 kts 42°
2026-04-20 18:00 33.91271 -118.45667 19859 ft 406 kts 41°
2026-04-20 18:00 33.93254 -118.43228 20379 ft 409 kts 51°
2026-04-20 18:00 33.94919 -118.40444 20894 ft 412 kts 56°
2026-04-20 18:01 33.96543 -118.37584 21399 ft 415 kts 56°
2026-04-20 18:01 33.98176 -118.34699 21881 ft 418 kts 56°
2026-04-20 18:01 33.99817 -118.31797 22341 ft 421 kts 56°
2026-04-20 18:01 34.01470 -118.28873 22778 ft 424 kts 55°
2026-04-20 18:02 34.03138 -118.25930 23199 ft 426 kts 55°
2026-04-20 18:02 34.04815 -118.22975 23620 ft 429 kts 55°
2026-04-20 18:02 34.06503 -118.19997 24030 ft 432 kts 55°
2026-04-20 18:02 34.08203 -118.16989 24442 ft 434 kts 55°
2026-04-20 18:03 34.09905 -118.13974 24836 ft 437 kts 55°
2026-04-20 18:03 34.11624 -118.10930 25227 ft 439 kts 55°
2026-04-20 18:03 34.13346 -118.07882 25611 ft 441 kts 55°
2026-04-20 18:03 34.15080 -118.04812 25983 ft 444 kts 55°
2026-04-20 18:04 34.16847 -118.01680 26360 ft 446 kts 55°
2026-04-20 18:04 34.18596 -117.98580 26727 ft 448 kts 55°
2026-04-20 18:04 34.20354 -117.95455 27090 ft 450 kts 55°
2026-04-20 18:04 34.22113 -117.92317 27445 ft 453 kts 55°
2026-04-20 18:05 34.25656 -117.85980 28116 ft 457 kts 55°
2026-04-20 18:05 34.27444 -117.82785 28450 ft 460 kts 55°
2026-04-20 18:05 34.29242 -117.79579 28775 ft 461 kts 55°
2026-04-20 18:06 34.31045 -117.76364 29090 ft 463 kts 55°
2026-04-20 18:06 34.32857 -117.73128 29388 ft 465 kts 55°
2026-04-20 18:06 34.34670 -117.69878 29685 ft 467 kts 55°
2026-04-20 18:06 34.36509 -117.66625 29979 ft 469 kts 54°
2026-04-20 18:07 34.38404 -117.63398 30253 ft 471 kts 53°
2026-04-20 18:07 34.40335 -117.60193 30532 ft 473 kts 53°
2026-04-20 18:07 34.42002 -117.57460 30758 ft 474 kts 53°
2026-04-20 18:07 34.43959 -117.54251 31081 ft 474 kts 53°
2026-04-20 18:08 34.45902 -117.51041 31469 ft 472 kts 53°
2026-04-20 18:08 34.47834 -117.47818 31849 ft 471 kts 53°
2026-04-20 18:08 34.49747 -117.44601 32220 ft 470 kts 54°
2026-04-20 18:08 34.51648 -117.41388 32581 ft 469 kts 54°
2026-04-20 18:09 34.53543 -117.38179 32950 ft 468 kts 54°
2026-04-20 18:09 34.55438 -117.34972 33316 ft 467 kts 54°
2026-04-20 18:09 34.57325 -117.31782 33689 ft 465 kts 54°
2026-04-20 18:09 34.59210 -117.28594 34051 ft 464 kts 54°
2026-04-20 18:10 34.61091 -117.25413 34416 ft 463 kts 54°
2026-04-20 18:10 34.62969 -117.22243 34781 ft 462 kts 54°
2026-04-20 18:10 34.64841 -117.19080 35138 ft 461 kts 54°
2026-04-20 18:10 34.66702 -117.15930 35490 ft 459 kts 54°
2026-04-20 18:11 34.68562 -117.12778 35820 ft 458 kts 54°
2026-04-20 18:11 34.70416 -117.09628 36131 ft 458 kts 54°
2026-04-20 18:11 34.72265 -117.06479 36441 ft 457 kts 54°
2026-04-20 18:11 34.74107 -117.03345 36728 ft 456 kts 54°
2026-04-20 18:12 34.75946 -117.00217 37012 ft 454 kts 54°
2026-04-20 18:12 34.77775 -116.97103 37071 ft 449 kts 54°
2026-04-20 18:12 34.81379 -116.90957 37072 ft 445 kts 54°
2026-04-20 18:13 34.84964 -116.84815 37064 ft 444 kts 54°
2026-04-20 18:13 34.88539 -116.78686 37063 ft 444 kts 54°
2026-04-20 18:14 34.91520 -116.73592 37063 ft 444 kts 52°
2026-04-20 18:14 34.95635 -116.67992 37065 ft 444 kts 46°
2026-04-20 18:15 34.99837 -116.62477 37066 ft 444 kts 46°
2026-04-20 18:15 35.04010 -116.56968 37068 ft 444 kts 46°
2026-04-20 18:16 35.08209 -116.51414 37067 ft 443 kts 47°
2026-04-20 18:16 35.12389 -116.45878 37066 ft 443 kts 46°
2026-04-20 18:17 35.16567 -116.40352 37060 ft 442 kts 46°
2026-04-20 18:17 35.20738 -116.34823 37054 ft 442 kts 46°
2026-04-20 18:18 35.24934 -116.29250 37052 ft 442 kts 46°
2026-04-20 18:18 35.29068 -116.23744 37052 ft 442 kts 46°
2026-04-20 18:19 35.33247 -116.18163 37051 ft 442 kts 46°
2026-04-20 18:19 35.37406 -116.12621 37049 ft 442 kts 46°
2026-04-20 18:20 35.41530 -116.07106 37048 ft 442 kts 46°
2026-04-20 18:20 35.45705 -116.01506 37049 ft 442 kts 47°
2026-04-20 18:21 35.49843 -115.95938 37048 ft 441 kts 46°
2026-04-20 18:21 35.53979 -115.90372 37047 ft 441 kts 46°
2026-04-20 18:22 35.58117 -115.84815 37046 ft 441 kts 46°
2026-04-20 18:22 35.62254 -115.79249 37047 ft 441 kts 46°
2026-04-20 18:23 35.66360 -115.73657 37047 ft 441 kts 47°
2026-04-20 18:23 35.70437 -115.68023 37048 ft 441 kts 47°
2026-04-20 18:24 35.74516 -115.62387 37053 ft 441 kts 47°
2026-04-20 18:24 35.78606 -115.56748 37056 ft 441 kts 47°
2026-04-20 18:25 35.82687 -115.51116 37058 ft 441 kts 47°
2026-04-20 18:25 35.86766 -115.45481 37058 ft 441 kts 47°
2026-04-20 18:26 35.90843 -115.39833 37060 ft 440 kts 47°
2026-04-20 18:26 35.94907 -115.34180 37062 ft 440 kts 47°
2026-04-20 18:27 35.98971 -115.28530 37065 ft 440 kts 47°